FENGYUN 2H

Last updated on Thu Jul 03 2025 00:02:22 GMT+0000 (Coordinated Universal Time)

1 43491U 18050A 25183.60722102 -.00000120 00000+0 00000+0 0 9996 2 43491 2.1301 83.2746 0001621 114.6508 20.5035 1.00276439 25931
UTC large
Height (km)
Speed (km/s)
/
Latitude / Longitude
Inclination (degrees)
Orbital Period (minutes)
Azimuth
Elevation
Range (km)
Doppler Factor

Next 0 passes for location: London (51.5072 / 0.1276)

Sorry there are no passes over London.